Weather in Oniskovichi

Belarus     52°07′36″N   24°42′51″E
temp.,
°C
wind,
m/s
gust,
m/s
humid.,
%
clouds,
%
prec.,
mm/h
press.,
hPa
HPBL,
m
23 april, fri
fri2300:00+3wsw410773 0.0 1015234
03:00+3wsw513773 0.0 1015427
06:00+1wsw512805 0.0 1016376
09:00+4w710645 0.0 1017870
12:00+6wnw6856100 0.1 10171630
15:00+8wnw101150100 0.9 10172195
18:00+7wnw7106095 0.5 10171608
21:00+3wnw48575 0.6 1018141
24 april, sat
sat2400:00+3wnw51058100 0.0 1019423
03:000wnw49683 0.0 1019233
06:00−1wnw411725 0.0 1020319
09:00+4wnw69550 0.0 1021996
12:00+7wnw6840100 0.0 10202607
15:00+8wnw7839100 0.0 10202590
18:00+7nw595093 0.3 10191930
21:00+3nnw227514 0.4 102031
25 april, sun
sun2500:00+1nnw4896100 0.4 1020307
03:000wnw379899 1.4 1019264
06:00−2wnw38955 0.0 1020183
09:00+2wnw58745 0.0 1020738
12:00+5wnw565398 0.1 10201821
15:00+7wnw6844100 0.7 10192520
18:00+6w585695 0.3 10181323
21:00+3w487294 0.6 1018170
26 april, mon
mon2600:000w35855 0.0 101879
03:00−1wnw368795 0.0 1018124
06:00−2wnw37865 0.0 1018164
09:00+3wnw57615 0.0 1018752
12:00+7w5741100 0.0 10172310
15:00+7w564299 0.0 10162034
18:00+8w354397 0.1 10141838
21:00+4wsw2374100 0.4 101448
27 april, tue
tue2700:00+2sw2392100 0.6 101460
03:000nnw23903 0.8 101432
06:00−1nw22915 0.0 101530
09:00+4nw23710 0.0 1015422
12:00+8w22485 0.0 10151379
15:00+10wsw22435 0.0 10131547
18:00+10s1243100 0.0 10131558
21:00+6e3359100 0.0 101338